When you browse on this site, cookies collect data to enhance your experience and personalize the content and advertising you see.
Visit our Privacy Policy to learn more. By continuing to use the site, you agree to this use of cookies and data.
  • In United Kingdom
  • List of Countries
  • For 7 days
  • Water Temperature
  • Satellite Maps
  • Weather Map
  • Weather Widgets
  • user-avatar
    Login

    Hourly Weather Vasyl'ky

    Today, 16 June, Sunday

    Time Temperature Precipitation Wind Pressure Humidity
    00:00 +22°C° 0 mm 1 mps 749 mmHg 82%
    01:00 +21°C° 0 mm 1 mps 749 mmHg 84%
    02:00 +21°C° 0 mm 1 mps 749 mmHg 86%
    03:00 +21°C° 0 mm 1 mps 749 mmHg 87%
    04:00 +21°C° 0 mm 1 mps 749 mmHg 88%
    05:00 +21°C° 0 mm 1 mps 749 mmHg 89%
    06:00 +23°C° 0 mm 1 mps 749 mmHg 85%
    07:00 +24°C° 0 mm 1 mps 749 mmHg 81%
    08:00 +25°C° 0 mm 2 mps 750 mmHg 77%
    09:00 +26°C° 0.1 mm 2 mps 749 mmHg 72%
    10:00 +27°C° 0.1 mm 3 mps 749 mmHg 68%
    11:00 +28°C° 0.1 mm 3 mps 749 mmHg 63%
    12:00 +28°C° 0 mm 3 mps 749 mmHg 61%
    13:00 +28°C° 0 mm 2 mps 750 mmHg 59%
    14:00 +29°C° 0 mm 2 mps 750 mmHg 58%
    15:00 +28°C° 0 mm 2 mps 749 mmHg 59%
    16:00 +28°C° 0 mm 2 mps 749 mmHg 60%
    17:00 +28°C° 0 mm 2 mps 749 mmHg 62%
    18:00 +26°C° 0 mm 2 mps 749 mmHg 66%
    19:00 +25°C° 0 mm 2 mps 749 mmHg 71%
    20:00 +23°C° 0 mm 2 mps 749 mmHg 76%
    21:00 +21°C° 0 mm 2 mps 750 mmHg 77%
    22:00 +20°C° 0 mm 2 mps 750 mmHg 78%
    23:00 +20°C° 0 mm 2 mps 750 mmHg 79%

    Tomorrow, 17 June, Monday

    Time Temperature Precipitation Wind Pressure Humidity
    00:00 +19°C° 0 mm 2 mps 750 mmHg 81%
    01:00 +19°C° 0 mm 2 mps 750 mmHg 83%
    02:00 +19°C° 0 mm 2 mps 750 mmHg 84%
    03:00 +20°C° 0 mm 1 mps 750 mmHg 84%
    04:00 +20°C° 0 mm 1 mps 750 mmHg 84%
    05:00 +20°C° 0 mm 1 mps 750 mmHg 84%
    06:00 +21°C° 0 mm 1 mps 750 mmHg 80%
    07:00 +23°C° 0 mm 1 mps 750 mmHg 76%
    08:00 +24°C° 0 mm 2 mps 750 mmHg 71%
    09:00 +25°C° 0 mm 2 mps 750 mmHg 68%
    10:00 +26°C° 0 mm 2 mps 750 mmHg 64%
    11:00 +27°C° 0 mm 2 mps 750 mmHg 61%
    12:00 +28°C° 0 mm 2 mps 750 mmHg 60%
    13:00 +29°C° 0 mm 2 mps 750 mmHg 59%
    14:00 +29°C° 0 mm 2 mps 750 mmHg 59%
    15:00 +29°C° 0.9 mm 2 mps 750 mmHg 64%
    16:00 +28°C° 0.9 mm 2 mps 749 mmHg 69%
    17:00 +28°C° 0.9 mm 1 mps 749 mmHg 74%
    18:00 +27°C° 0.5 mm 1 mps 749 mmHg 77%
    19:00 +25°C° 0.5 mm 2 mps 749 mmHg 80%
    20:00 +24°C° 0.5 mm 2 mps 749 mmHg 83%
    21:00 +24°C° 0.4 mm 2 mps 750 mmHg 86%
    22:00 +23°C° 0.4 mm 2 mps 750 mmHg 89%
    23:00 +21°C° 0.4 mm 3 mps 750 mmHg 91%

    Day after tomorrow, 18 June, Tuesday

    Time Temperature Precipitation Wind Pressure Humidity
    00:00 +20°C° 0 mm 3 mps 750 mmHg 91%
    01:00 +20°C° 0 mm 3 mps 750 mmHg 91%
    02:00 +19°C° 0 mm 3 mps 750 mmHg 92%
    03:00 +19°C° 0 mm 3 mps 750 mmHg 92%
    04:00 +18°C° 0 mm 3 mps 750 mmHg 92%
    05:00 +18°C° 0 mm 3 mps 750 mmHg 92%
    06:00 +19°C° 0 mm 3 mps 751 mmHg 89%
    07:00 +20°C° 0 mm 3 mps 751 mmHg 86%
    08:00 +21°C° 0 mm 3 mps 751 mmHg 83%
    09:00 +23°C° 0 mm 4 mps 751 mmHg 77%
    10:00 +25°C° 0 mm 4 mps 751 mmHg 72%
    11:00 +26°C° 0 mm 4 mps 751 mmHg 67%
    12:00 +26°C° 0 mm 4 mps 751 mmHg 68%
    13:00 +26°C° 0 mm 4 mps 751 mmHg 69%
    14:00 +26°C° 0 mm 4 mps 751 mmHg 69%
    15:00 +26°C° 0 mm 4 mps 751 mmHg 71%
    16:00 +25°C° 0 mm 4 mps 751 mmHg 73%
    17:00 +25°C° 0 mm 4 mps 751 mmHg 75%
    18:00 +24°C° 0 mm 3 mps 751 mmHg 78%
    19:00 +22°C° 0 mm 3 mps 751 mmHg 82%
    20:00 +20°C° 0 mm 2 mps 751 mmHg 85%
    21:00 +20°C° 0 mm 2 mps 751 mmHg 87%
    22:00 +19°C° 0 mm 2 mps 751 mmHg 89%
    23:00 +19°C° 0 mm 2 mps 752 mmHg 90%

    19 June, Wednesday

    Time Temperature Precipitation Wind Pressure Humidity
    00:00 +18°C° 0 mm 2 mps 751 mmHg 91%
    01:00 +18°C° 0 mm 2 mps 751 mmHg 92%
    02:00 +17°C° 0 mm 3 mps 751 mmHg 93%
    03:00 +17°C° 0 mm 3 mps 751 mmHg 93%
    04:00 +18°C° 0 mm 2 mps 752 mmHg 92%
    05:00 +18°C° 0 mm 2 mps 752 mmHg 91%
    06:00 +19°C° 0 mm 3 mps 752 mmHg 86%
    07:00 +21°C° 0 mm 3 mps 752 mmHg 81%
    08:00 +22°C° 0 mm 3 mps 752 mmHg 76%
    09:00 +25°C° 0 mm 3 mps 752 mmHg 71%
    10:00 +26°C° 0 mm 3 mps 752 mmHg 65%
    11:00 +27°C° 0 mm 4 mps 752 mmHg 60%
    12:00 +27°C° 0 mm 4 mps 752 mmHg 59%
    13:00 +28°C° 0 mm 4 mps 752 mmHg 58%
    14:00 +28°C° 0 mm 4 mps 751 mmHg 57%
    15:00 +28°C° 0 mm 4 mps 751 mmHg 59%
    16:00 +28°C° 0 mm 3 mps 751 mmHg 62%
    17:00 +27°C° 0 mm 3 mps 751 mmHg 64%
    18:00 +26°C° 0 mm 3 mps 751 mmHg 69%
    19:00 +24°C° 0 mm 3 mps 751 mmHg 74%
    20:00 +23°C° 0 mm 2 mps 751 mmHg 79%
    21:00 +21°C° 0 mm 2 mps 751 mmHg 81%
    22:00 +20°C° 0 mm 2 mps 752 mmHg 84%
    23:00 +20°C° 0 mm 2 mps 752 mmHg 86%

    20 June, Thursday

    Time Temperature Precipitation Wind Pressure Humidity
    00:00 +19°C° 0 mm 2 mps 752 mmHg 87%
    01:00 +19°C° 0 mm 2 mps 751 mmHg 88%
    02:00 +18°C° 0 mm 2 mps 751 mmHg 89%
    03:00 +18°C° 0 mm 2 mps 751 mmHg 89%
    04:00 +18°C° 0 mm 2 mps 751 mmHg 90%
    05:00 +18°C° 0 mm 2 mps 751 mmHg 90%
    06:00 +20°C° 0 mm 2 mps 752 mmHg 85%
    07:00 +23°C° 0 mm 2 mps 752 mmHg 80%
    08:00 +24°C° 0 mm 2 mps 752 mmHg 74%
    09:00 +26°C° 0 mm 3 mps 752 mmHg 69%
    10:00 +27°C° 0 mm 3 mps 752 mmHg 64%
    11:00 +28°C° 0 mm 3 mps 752 mmHg 59%
    12:00 +28°C° 0 mm 3 mps 752 mmHg 57%
    13:00 +28°C° 0 mm 3 mps 751 mmHg 56%
    14:00 +29°C° 0 mm 3 mps 751 mmHg 54%
    15:00 +28°C° 0 mm 3 mps 751 mmHg 56%
    16:00 +28°C° 0 mm 3 mps 751 mmHg 58%
    17:00 +28°C° 0 mm 3 mps 751 mmHg 60%
    18:00 +26°C° 0 mm 3 mps 751 mmHg 64%
    19:00 +25°C° 0 mm 2 mps 751 mmHg 67%
    20:00 +23°C° 0 mm 2 mps 751 mmHg 71%
    21:00 +21°C° 0 mm 2 mps 751 mmHg 73%
    22:00 +21°C° 0 mm 2 mps 751 mmHg 74%
    23:00 +20°C° 0 mm 2 mps 751 mmHg 76%

    21 June, Friday

    Time Temperature Precipitation Wind Pressure Humidity
    00:00 +20°C° 0 mm 2 mps 751 mmHg 79%
    01:00 +19°C° 0 mm 2 mps 751 mmHg 81%
    02:00 +19°C° 0 mm 2 mps 751 mmHg 84%
    03:00 +19°C° 0 mm 2 mps 751 mmHg 85%
    04:00 +19°C° 0 mm 2 mps 751 mmHg 85%
    05:00 +20°C° 0 mm 1 mps 752 mmHg 86%
    06:00 +20°C° 0 mm 2 mps 752 mmHg 81%
    07:00 +23°C° 0 mm 2 mps 752 mmHg 76%
    08:00 +25°C° 0 mm 2 mps 752 mmHg 71%
    09:00 +26°C° 0 mm 2 mps 752 mmHg 66%
    10:00 +27°C° 0 mm 2 mps 752 mmHg 61%
    11:00 +29°C° 0 mm 2 mps 752 mmHg 56%
    12:00 +29°C° 0 mm 2 mps 752 mmHg 54%
    13:00 +30°C° 0 mm 2 mps 752 mmHg 52%
    14:00 +30°C° 0 mm 3 mps 751 mmHg 50%
    15:00 +30°C° 0 mm 2 mps 751 mmHg 52%
    16:00 +30°C° 0 mm 2 mps 751 mmHg 54%
    17:00 +29°C° 0 mm 2 mps 751 mmHg 55%
    18:00 +28°C° 0 mm 2 mps 751 mmHg 60%
    19:00 +26°C° 0 mm 2 mps 751 mmHg 64%
    20:00 +24°C° 0 mm 2 mps 751 mmHg 68%
    21:00 +23°C° 0 mm 2 mps 751 mmHg 68%
    22:00 +23°C° 0 mm 2 mps 751 mmHg 67%
    23:00 +21°C° 0 mm 2 mps 752 mmHg 67%
    Show more